TimeCST,TemperatureF,Dew PointF,Humidity,Sea Level PressureIn,VisibilityMPH,Wind Direction,Wind SpeedMPH,Gust SpeedMPH,PrecipitationIn,Events,Conditions,WindDirDegrees,DateUTC
12:51 AM,25.0,19.0,78,30.19,9.0,NW,6.9,-,N/A,,Scattered Clouds,310,2013-01-16 06:51:00
1:51 AM,23.0,17.1,78,30.19,9.0,Calm,Calm,-,N/A,,Partly Cloudy,0,2013-01-16 07:51:00
3:51 AM,21.0,16.0,81,30.18,9.0,WNW,3.5,-,N/A,,Clear,300,2013-01-16 09:51:00
4:51 AM,21.0,16.0,81,30.16,8.0,West,4.6,-,N/A,,Clear,280,2013-01-16 10:51:00
6:51 AM,21.0,16.0,81,30.17,8.0,WSW,4.6,-,N/A,,Partly Cloudy,250,2013-01-16 12:51:00
7:51 AM,23.0,16.0,74,30.18,8.0,West,4.6,-,N/A,,Scattered Clouds,260,2013-01-16 13:51:00
8:51 AM,26.1,18.0,71,30.17,8.0,SW,8.1,-,N/A,,Scattered Clouds,220,2013-01-16 14:51:00
9:51 AM,30.0,16.0,56,30.17,-9999.0,West,12.7,-,N/A,,Partly Cloudy,270,2013-01-16 15:51:00
10:51 AM,34.0,15.1,46,30.14,9.0,SW,10.4,-,N/A,,Partly Cloudy,220,2013-01-16 16:51:00
11:51 AM,37.9,15.1,39,30.11,10.0,SW,6.9,-,N/A,,Partly Cloudy,220,2013-01-16 17:51:00
12:51 PM,39.9,16.0,38,30.09,10.0,WSW,11.5,-,N/A,,Partly Cloudy,250,2013-01-16 18:51:00
1:51 PM,41.0,18.0,40,30.08,10.0,WSW,12.7,-,N/A,,Partly Cloudy,250,2013-01-16 19:51:00
2:51 PM,43.0,18.0,37,30.06,10.0,WSW,16.1,-,N/A,,Partly Cloudy,250,2013-01-16 20:51:00
3:51 PM,42.1,19.0,40,30.08,10.0,WSW,13.8,-,N/A,,Partly Cloudy,250,2013-01-16 21:51:00
4:51 PM,39.9,19.0,43,30.09,10.0,WSW,11.5,-,N/A,,Scattered Clouds,240,2013-01-16 22:51:00
5:51 PM,37.0,19.9,50,30.12,10.0,WNW,6.9,-,N/A,,Scattered Clouds,290,2013-01-16 23:51:00
6:51 PM,37.0,19.9,50,30.14,10.0,WSW,3.5,-,N/A,,Scattered Clouds,250,2013-01-17 00:51:00
7:51 PM,36.0,19.9,52,30.14,10.0,WSW,4.6,-,N/A,,Scattered Clouds,240,2013-01-17 01:51:00
8:51 PM,34.0,21.0,59,30.15,10.0,West,3.5,-,N/A,,Partly Cloudy,260,2013-01-17 02:51:00
9:51 PM,33.1,21.9,64,30.14,10.0,WSW,6.9,-,N/A,,Partly Cloudy,240,2013-01-17 03:51:00
10:51 PM,34.0,21.9,61,30.14,10.0,West,8.1,-,N/A,,Clear,270,2013-01-17 04:51:00
11:51 PM,35.1,23.0,61,30.15,10.0,West,5.8,-,N/A,,Mostly Cloudy,260,2013-01-17 05:51:00